Content
SEND FEEDBACK

Daily
Averages
Monthly
Summary
United States of America

CLEARLAKE, WASHINGTON


Home > North America > United States > Washington
Elevation: 322 feet     Latitude: 48 30N     Longitude: 122 13W

WEATHER
 
SELECT A DAY
Number of Records: 279,123;   Date Range: 5/6/03 - 9/30/14
 
SHARE

PRINT THIS DATA

[ ← Previous Day ]
WEATHER ALMANAC - FEBRUARY 5, 2013
[ Next Day → ]
[ °C ]   °F
Weather ElementAverageHighLow
Temperature47.2 °F50 °F (2:55 pm)44.6 °F (11:55 pm)
Dewpoint44.3 °F44.6 °F (12:35 am)42.8 °F (2:55 pm)
Humidity89.7 %100 % (11:55 pm)76 % (2:55 pm)
Barometer29.84 in29.91 in (11:55 pm)29.79 in (4:35 pm)
Wind Speed11.4 mph17.3 mph (3:15 pm)
Wind Gust26.5 mph (4:15 pm)
Weather ElementAverage
Visibility10 mi
Wind DirectionSSE (158.8 °)

Weather ElementTotal
Precipitation---
Heating Degree Days17.7 (Base 65)
Averaged from 69 records on February 5, 2013
WEATHER CONDITIONS BREAKOUT
WIND DIRECTION BREAKOUT
WEATHER BY HOUR - FEBRUARY 5, 2013
[ °C ]   °F
Local TimeTemperatureDewpointHumidityBarometerVisibilityWind DirectionWind SpeedGust SpeedPrecipitationEventsConditions
12:35 AM46.4 °F44.6 °F93 %29.85 in10.0 miESE (120°)9.2 mph0.00 inOvercast
12:55 AM46.4 °F44.6 °F93 %29.85 in10.0 miEast (100°)12.7 mph0.00 inOvercast
1:15 AM46.4 °F44.6 °F93 %29.85 in10.0 miSE (130°)12.7 mph20.7 mph0.00 inOvercast
1:35 AM48.2 °F44.6 °F87 %29.84 in10.0 miSE (140°)13.8 mph20.7 mph0.00 inOvercast
1:55 AM48.2 °F44.6 °F87 %29.84 in10.0 miSSE (150°)13.8 mph24.2 mph0.00 inOvercast
2:15 AM48.2 °F44.6 °F87 %29.84 in10.0 miSSE (150°)11.5 mph17.3 mph0.00 inOvercast
2:35 AM48.2 °F44.6 °F87 %29.84 in10.0 miSE (140°)12.7 mph17.3 mph0.00 inOvercast
2:55 AM46.4 °F44.6 °F93 %29.83 in10.0 miSE (140°)11.5 mph21.9 mph0.00 inOvercast
3:15 AM46.4 °F44.6 °F93 %29.85 in10.0 miSouth (170°)8.1 mph19.6 mph0.00 inMostly Cloudy
3:35 AM48.2 °F44.6 °F87 %29.85 in10.0 miSSE (160°)9.2 mph18.4 mph0.00 inMostly Cloudy
3:55 AM48.2 °F44.6 °F87 %29.85 in10.0 miSSE (150°)8.1 mph0.00 inOvercast
4:15 AM46.4 °F44.6 °F93 %29.86 in10.0 miSSE (160°)10.4 mph17.3 mph0.00 inOvercast
4:35 AM46.4 °F44.6 °F93 %29.85 in10.0 miSSE (160°)9.2 mph0.00 inOvercast
4:55 AM46.4 °F44.6 °F93 %29.83 in10.0 miSSE (150°)12.7 mph19.6 mph0.00 inOvercast
5:15 AM46.4 °F44.6 °F93 %29.83 in10.0 miSSE (160°)13.8 mph19.6 mph0.00 inOvercast
5:35 AM46.4 °F44.6 °F93 %29.83 in10.0 miSSE (150°)11.5 mph18.4 mph0.00 inMostly Cloudy
5:55 AM46.4 °F44.6 °F93 %29.83 in10.0 miSSE (150°)12.7 mph19.6 mph0.00 inMostly Cloudy
6:15 AM46.4 °F44.6 °F93 %29.82 in10.0 miSSE (150°)11.5 mph19.6 mph0.00 inMostly Cloudy
6:35 AM46.4 °F44.6 °F93 %29.82 in10.0 miSSE (150°)13.8 mph21.9 mph0.00 inOvercast
6:55 AM46.4 °F44.6 °F93 %29.82 in10.0 miSSE (150°)12.7 mph18.4 mph0.00 inOvercast
7:15 AM46.4 °F44.6 °F93 %29.82 in10.0 miSSE (150°)11.5 mph17.3 mph0.00 inOvercast
7:35 AM46.4 °F44.6 °F93 %29.83 in10.0 miSE (140°)13.8 mph19.6 mph0.00 inOvercast
7:55 AM46.4 °F44.6 °F93 %29.83 in10.0 miSSE (150°)10.4 mph0.00 inOvercast
8:15 AM46.4 °F44.6 °F93 %29.84 in10.0 miSSE (160°)15.0 mph23.0 mph0.00 inOvercast
8:35 AM46.4 °F44.6 °F93 %29.85 in10.0 miSSE (150°)10.4 mph18.4 mph0.00 inOvercast
8:55 AM46.4 °F44.6 °F93 %29.85 in10.0 miSE (140°)9.2 mph16.1 mph0.00 inOvercast
9:15 AM46.4 °F44.6 °F93 %29.84 in10.0 miSE (130°)12.7 mph19.6 mph0.00 inOvercast
9:35 AM46.4 °F44.6 °F93 %29.85 in10.0 miSSE (150°)9.2 mph17.3 mph0.00 inOvercast
9:55 AM46.4 °F44.6 °F93 %29.85 in10.0 miSE (140°)10.4 mph17.3 mph0.00 inOvercast
10:15 AM46.4 °F44.6 °F93 %29.85 in10.0 miSSE (150°)10.4 mph17.3 mph0.00 inOvercast
10:35 AM46.4 °F44.6 °F93 %29.85 in10.0 miSSE (150°)11.5 mph0.00 inOvercast
10:55 AM46.4 °F44.6 °F93 %29.85 in10.0 miSE (140°)10.4 mph0.00 inOvercast
11:15 AM46.4 °F44.6 °F93 %29.85 in10.0 miSE (140°)8.1 mph0.00 inOvercast
11:35 AM48.2 °F44.6 °F87 %29.84 in10.0 miSE (140°)15.0 mph18.4 mph0.00 inOvercast
11:55 AM48.2 °F44.6 °F87 %29.84 in10.0 miSSE (160°)9.2 mph19.6 mph0.00 inOvercast
12:15 PM48.2 °F44.6 °F87 %29.84 in10.0 miSSE (150°)8.1 mph16.1 mph0.00 inOvercast
12:35 PM48.2 °F44.6 °F87 %29.83 in10.0 miSouth (170°)9.2 mph18.4 mph0.00 inOvercast
12:55 PM48.2 °F44.6 °F87 %29.83 in10.0 miSouth (170°)12.7 mph21.9 mph0.00 inOvercast
1:15 PM48.2 °F44.6 °F87 %29.82 in10.0 miSouth (180°)11.5 mph20.7 mph0.00 inMostly Cloudy
1:35 PM48.2 °F44.6 °F87 %29.81 in10.0 miSSE (160°)13.8 mph25.3 mph0.00 inMostly Cloudy
1:55 PM48.2 °F44.6 °F87 %29.80 in10.0 miSSE (160°)10.4 mph19.6 mph0.00 inMostly Cloudy
2:15 PM48.2 °F44.6 °F87 %29.80 in10.0 miSouth (170°)15.0 mph24.2 mph0.00 inScattered Clouds
2:35 PM48.2 °F44.6 °F87 %29.80 in10.0 miSouth (170°)15.0 mph24.2 mph0.00 inScattered Clouds
2:55 PM50.0 °F42.8 °F76 %29.80 in10.0 miSouth (170°)16.1 mph21.9 mph0.00 inPartly Cloudy
3:15 PM48.2 °F42.8 °F82 %29.81 in10.0 miSouth (170°)17.3 mph25.3 mph0.00 inScattered Clouds
3:35 PM50.0 °F42.8 °F76 %29.80 in10.0 miSSE (150°)12.7 mph21.9 mph0.00 inOvercast
3:55 PM50.0 °F42.8 °F76 %29.80 in10.0 miSSE (150°)12.7 mph24.2 mph0.00 inOvercast
4:15 PM50.0 °F42.8 °F76 %29.80 in10.0 miSouth (180°)12.7 mph26.5 mph0.00 inOvercast
4:35 PM50.0 °F42.8 °F76 %29.79 in10.0 miSSE (160°)13.8 mph21.9 mph0.00 inOvercast
4:55 PM48.2 °F42.8 °F82 %29.80 in10.0 miSSE (160°)13.8 mph24.2 mph0.00 inOvercast
5:15 PM48.2 °F42.8 °F82 %29.80 in10.0 miSouth (170°)11.5 mph19.6 mph0.00 inOvercast
5:35 PM48.2 °F44.6 °F87 %29.80 in10.0 miSouth (170°)16.1 mph26.5 mph0.00 inOvercast
6:15 PM48.2 °F42.8 °F82 %29.81 in10.0 miSouth (180°)13.8 mph19.6 mph0.00 inOvercast
6:35 PM46.4 °F42.8 °F87 %29.81 in10.0 miSouth (170°)12.7 mph20.7 mph0.00 inOvercast
6:55 PM46.4 °F44.6 °F93 %29.81 in10.0 miSouth (180°)10.4 mph20.7 mph0.00 inOvercast
7:15 PM46.4 °F44.6 °F93 %29.82 in10.0 miSouth (170°)11.5 mph20.7 mph0.00 inOvercast
7:35 PM46.4 °F44.6 °F93 %29.83 in10.0 miSouth (170°)11.5 mph18.4 mph0.00 inOvercast
7:55 PM46.4 °F44.6 °F93 %29.84 in10.0 miSouth (180°)9.2 mph17.3 mph0.00 inOvercast
8:15 PM46.4 °F44.6 °F93 %29.84 in10.0 miSouth (170°)9.2 mph16.1 mph0.00 inOvercast
8:35 PM46.4 °F44.6 °F93 %29.85 in10.0 miSouth (180°)6.9 mph0.00 inOvercast
8:55 PM46.4 °F44.6 °F93 %29.86 in10.0 miSouth (180°)6.9 mph0.00 inOvercast
9:15 PM46.4 °F44.6 °F93 %29.86 in10.0 miSouth (180°)6.9 mph0.00 inOvercast
9:35 PM46.4 °F44.6 °F93 %29.87 in10.0 miSouth (190°)9.2 mph0.00 inOvercast
9:55 PM46.4 °F44.6 °F93 %29.88 in10.0 miSouth (190°)8.1 mph0.00 inOvercast
10:15 PM46.4 °F44.6 °F93 %29.88 in10.0 miSouth (180°)8.1 mph0.00 inOvercast
10:35 PM46.4 °F44.6 °F93 %29.89 in10.0 miSouth (170°)9.2 mph16.1 mph0.00 inOvercast
10:55 PM46.4 °F44.6 °F93 %29.89 in10.0 miSouth (180°)6.9 mph0.00 inMostly Cloudy
11:15 PM46.4 °F44.6 °F93 %29.89 in10.0 miSouth (180°)12.7 mph17.3 mph0.00 inOvercast
11:55 PM44.6 °F44.6 °F100 %29.91 in10.0 miSouth (180°)10.4 mph0.00 inScattered Clouds
Hourly data recorded from KBVS, located miles away from Clearlake, Washington







STORIES FROM OUR PARTNERS